Location: Kielce
(50.8833°N, 20.6167°E)
Time: 22:37:50
(UTC+02:00)

SR - Pass Details

Date: 28 April 2021
Orbit: 573 x 882 km, 66.7° (Epoch: 09 May)

Event Time Altitude Azimuth Distance (km) Brightness Sun altitude
Rises 15:39:28 0° 316° (NW) 3,460 ? 38.0°
Reaches altitude 10° 15:42:22 10° 305° (NW) 2,489 ? 37.6°
Maximum altitude 15:47:00 26° 251° (WSW) 1,577 ? 37.0°
Drops below altitude 10° 15:51:24 10° 196° (SSW) 2,337 ? 36.3°
Sets 15:54:03 0° 184° (S) 3,207 ? 35.9°
